Weather History for St. Petersburg Airport, FL

Change the Weather History Date:

Sunday, March 24, 2013

  Actual Average Record
Temperature  
Mean Temperature 76 °F -  
Max Temperature 82 °F 77 °F 89 °F (1949)
Min Temperature 70 °F 60 °F 41 °F (1968)
Cooling Degree Days 10    
Growing Degree Days 26 (Base 50)    
Moisture  
Dew Point 70 °F    
Average Humidity 85    
Maximum Humidity 94    
Minimum Humidity 74    
Precipitation  
Precipitation 0.00 in - - ()
Sea Level Pressure  
Sea Level Pressure 29.74 in    
Wind  
Wind Speed 12 mph (SSW)    
Max Wind Speed 23 mph    
Max Gust Speed 33 mph    
Visibility 7 miles    
Events      
Averages and records for this station are not official NWS values.
T = Trace of Precipitation, MM = Missing Value Source: NWS Daily Summary

Daily Weather History Graph

Daily Weather History Graph

Search for Another Location

Airport:

Trip Planner

Search our weather history database for the weather conditions in past years. The results will help you decide how hot, cold, wet, or windy it might be!

Date:

Astronomy

Mar. 24, 2013 Rise Set
Actual Time 7:29 AM EDT 7:44 PM EDT
Civil Twilight 7:06 AM EDT 8:07 PM EDT
Nautical Twilight 6:39 AM EDT 8:35 PM EDT
Astronomical Twilight 6:11 AM EDT 9:02 PM EDT
Moon 5:21 PM EDT (3/24) 5:26 AM EDT (3/24)
Length of Visible Light 13h 01m
Length of Day
12h 14m
Waxing Gibbous, 91% of the Moon is Illuminated
Mar 24
Waxing Gibbous
Mar 27
Full
Apr 3
Last Quarter
Apr 10
New
Apr 18
First Quarter

Hourly Weather History & Observations

Time (EDT) Temp. Heat Index Dew Point Humidity Pressure Visibility Wind Dir Wind Speed Gust Speed Precip Events Conditions
12:15 AM 73.4 °F - 69.8 °F 88% 29.83 in 5.0 mi SSE 6.9 mph - N/A   Overcast
12:53 AM - - - N/A% 29.83 in 5.0 mi SSE 8.1 mph - N/A   Haze
1:53 AM 72.0 °F - 69.1 °F 91% 29.80 in 5.0 mi SSE 6.9 mph - N/A   Overcast
2:19 AM 71.6 °F - 69.8 °F 94% 29.78 in 4.0 mi SSE 8.1 mph - N/A   Scattered Clouds
2:53 AM 72.0 °F - 69.1 °F 91% 29.76 in 5.0 mi SSE 11.5 mph - N/A   Clear
3:10 AM 71.6 °F - 69.8 °F 94% 29.75 in 5.0 mi SSE 10.4 mph - N/A   Scattered Clouds
3:22 AM 71.6 °F - 69.8 °F 94% 29.74 in 5.0 mi SSE 12.7 mph - N/A   Mostly Cloudy
3:53 AM 72.0 °F - 69.1 °F 91% 29.74 in 5.0 mi SSE 9.2 mph - N/A   Overcast
4:25 AM - - - N/A% 29.73 in 5.0 mi SSE 6.9 mph - N/A   Haze
4:53 AM - - - N/A% 29.74 in 6.0 mi SE 5.8 mph - N/A   Haze
5:53 AM - - - N/A% 29.73 in 8.0 mi South 12.7 mph 17.3 mph N/A   Overcast
6:18 AM - - - N/A% 29.71 in 9.0 mi South 15.0 mph 21.9 mph N/A   Overcast
6:37 AM 73.4 °F - 69.8 °F 88% 29.71 in 8.0 mi South 18.4 mph 23.0 mph N/A   Overcast
6:53 AM 73.0 °F - 70.0 °F 90% 29.71 in 8.0 mi South 17.3 mph 23.0 mph N/A   Overcast
7:53 AM 73.9 °F - 70.0 °F 87% 29.72 in 2.5 mi SSW 16.1 mph 21.9 mph N/A   Mostly Cloudy
7:56 AM 73.4 °F - 69.8 °F 88% 29.71 in 6.0 mi SSW 16.1 mph 21.9 mph N/A   Mostly Cloudy
8:53 AM 73.9 °F - 70.0 °F 87% 29.73 in 6.0 mi South 20.7 mph 28.8 mph N/A   Mostly Cloudy
9:53 AM 73.9 °F - 70.0 °F 87% 29.78 in 9.0 mi SSW 13.8 mph 25.3 mph N/A   Overcast
10:05 AM 73.4 °F - 69.8 °F 88% 29.78 in 4.0 mi SSW 18.4 mph 24.2 mph N/A   Overcast
10:53 AM 75.9 °F - 71.1 °F 85% 29.78 in 4.0 mi SSW 17.3 mph - N/A   Haze
11:53 AM 80.1 °F 83.6 °F 71.1 °F 74% 29.76 in 8.0 mi SSW 21.9 mph - N/A   Overcast
12:34 PM 80.6 °F 84.6 °F 71.6 °F 74% 29.76 in 10.0 mi SSW 23.0 mph 29.9 mph N/A   Overcast
12:53 PM 80.1 °F 83.6 °F 71.1 °F 74% 29.75 in 8.0 mi SSW 23.0 mph 29.9 mph N/A   Overcast
1:53 PM 80.1 °F 83.6 °F 71.1 °F 74% 29.71 in 10.0 mi SW 21.9 mph 33.4 mph N/A   Overcast
2:53 PM 78.1 °F - 71.1 °F 79% 29.70 in 9.0 mi SW 19.6 mph 33.4 mph N/A   Overcast
3:53 PM 77.0 °F - 71.1 °F 82% 29.69 in 9.0 mi SW 17.3 mph - N/A   Overcast
4:49 PM 78.8 °F - 71.6 °F 78% 29.67 in 7.0 mi SW 18.4 mph 28.8 mph N/A   Overcast
4:53 PM 79.0 °F - 71.1 °F 77% 29.67 in 7.0 mi SW 23.0 mph 31.1 mph N/A   Overcast
5:53 PM 77.0 °F - 71.1 °F 82% 29.68 in 9.0 mi WSW 17.3 mph 24.2 mph N/A   Overcast
6:53 PM 75.9 °F - 71.1 °F 85% 29.69 in 7.0 mi WSW 12.7 mph - N/A   Overcast
7:53 PM 75.0 °F - 71.1 °F 87% 29.71 in 6.0 mi WSW 12.7 mph - N/A   Overcast
8:53 PM 73.0 °F - 69.1 °F 87% 29.73 in 6.0 mi WNW 8.1 mph - N/A   Overcast
9:05 PM 73.4 °F - 69.8 °F 88% 29.74 in 6.0 mi WNW 8.1 mph - N/A   Overcast
9:53 PM 72.0 °F - 66.9 °F 84% 29.76 in 7.0 mi WNW 6.9 mph - N/A   Mostly Cloudy
10:53 PM 71.1 °F - 66.0 °F 84% 29.78 in 8.0 mi WNW 10.4 mph - N/A   Mostly Cloudy
11:53 PM 70.0 °F - 64.9 °F 84% 29.77 in 8.0 mi West 6.9 mph - N/A   Clear